Year,Month,Day,Hour,Minute,Value (Times are PST for temperature in C)
2006,04,23,00,00,4.80
2006,04,23,00,01,4.80
2006,04,23,00,02,4.80
2006,04,23,00,03,4.80
2006,04,23,00,04,4.80
2006,04,23,00,05,4.80
2006,04,23,00,06,4.80
2006,04,23,00,07,4.70
2006,04,23,00,08,4.70
2006,04,23,00,09,4.70
2006,04,23,00,10,4.70
2006,04,23,00,11,4.70
2006,04,23,00,12,4.70
2006,04,23,00,13,4.60
2006,04,23,00,14,4.60
2006,04,23,00,15,4.60
2006,04,23,00,16,4.60
2006,04,23,00,17,4.60
2006,04,23,00,18,4.50
2006,04,23,00,19,4.50
2006,04,23,00,20,4.50
2006,04,23,00,21,4.50
2006,04,23,00,22,4.40
2006,04,23,00,23,4.40
2006,04,23,00,24,4.40
2006,04,23,00,25,4.30
2006,04,23,00,26,4.30
2006,04,23,00,27,4.30
2006,04,23,00,28,4.30
2006,04,23,00,29,4.30
2006,04,23,00,30,4.20
2006,04,23,00,31,4.20
2006,04,23,00,32,4.20
2006,04,23,00,33,4.20
2006,04,23,00,34,4.20
2006,04,23,00,35,4.20
2006,04,23,00,36,4.20
2006,04,23,00,37,4.20
2006,04,23,00,38,4.10
2006,04,23,00,39,4.10
2006,04,23,00,40,4.10
2006,04,23,00,41,4.10
2006,04,23,00,42,4.00
2006,04,23,00,43,4.00
2006,04,23,00,44,4.00
2006,04,23,00,45,4.00
2006,04,23,00,46,4.00
2006,04,23,00,47,4.00
2006,04,23,00,48,4.00
2006,04,23,00,49,3.90
2006,04,23,00,50,3.90
2006,04,23,00,51,3.90
2006,04,23,00,52,3.90
2006,04,23,00,53,4.00
2006,04,23,00,54,4.00
2006,04,23,00,55,4.00
2006,04,23,00,56,3.90
2006,04,23,00,57,3.90
2006,04,23,00,58,3.90
2006,04,23,00,59,3.90
2006,04,23,01,00,3.90
2006,04,23,01,01,3.90
2006,04,23,01,02,3.90
2006,04,23,01,03,3.90
2006,04,23,01,04,3.90
2006,04,23,01,05,3.90
2006,04,23,01,06,3.90
2006,04,23,01,07,3.80
2006,04,23,01,08,3.80
2006,04,23,01,09,3.80
2006,04,23,01,10,3.80
2006,04,23,01,11,3.80
2006,04,23,01,12,3.80
2006,04,23,01,13,3.80
2006,04,23,01,14,3.80
2006,04,23,01,15,3.80
2006,04,23,01,16,3.80
2006,04,23,01,17,3.80
2006,04,23,01,18,3.80
2006,04,23,01,19,3.80
2006,04,23,01,20,3.80
2006,04,23,01,21,3.80
2006,04,23,01,22,3.80
2006,04,23,01,23,3.80
2006,04,23,01,24,3.80
2006,04,23,01,25,3.80
2006,04,23,01,26,3.80
2006,04,23,01,27,3.80
2006,04,23,01,28,3.80
2006,04,23,01,29,3.80
2006,04,23,01,30,3.80
2006,04,23,01,31,3.80
2006,04,23,01,32,3.80
2006,04,23,01,33,3.80
2006,04,23,01,34,3.80
2006,04,23,01,35,3.80
2006,04,23,01,36,3.80
2006,04,23,01,37,3.80
2006,04,23,01,38,3.80
2006,04,23,01,39,3.80
2006,04,23,01,40,3.80
2006,04,23,01,41,3.80
2006,04,23,01,42,3.80
2006,04,23,01,43,3.80
2006,04,23,01,44,3.80
2006,04,23,01,45,3.80
2006,04,23,01,46,3.80
2006,04,23,01,47,3.80
2006,04,23,01,48,3.80
2006,04,23,01,49,3.80
2006,04,23,01,50,3.80
2006,04,23,01,51,3.80
2006,04,23,01,52,3.80
2006,04,23,01,53,3.80
2006,04,23,01,54,3.80
2006,04,23,01,55,3.70
2006,04,23,01,56,3.70
2006,04,23,01,57,3.60
2006,04,23,01,58,3.60
2006,04,23,01,59,3.60
2006,04,23,02,00,3.60
2006,04,23,02,01,3.50
2006,04,23,02,02,3.50
2006,04,23,02,03,3.50
2006,04,23,02,04,3.40
2006,04,23,02,05,3.40
2006,04,23,02,06,3.40
2006,04,23,02,07,3.30
2006,04,23,02,08,3.30
2006,04,23,02,09,3.30
2006,04,23,02,10,3.30
2006,04,23,02,11,3.30
2006,04,23,02,12,3.20
2006,04,23,02,13,3.20
2006,04,23,02,14,3.20
2006,04,23,02,15,3.20
2006,04,23,02,16,3.10
2006,04,23,02,17,3.10
2006,04,23,02,18,3.10
2006,04,23,02,19,3.10
2006,04,23,02,20,3.10
2006,04,23,02,21,3.10
2006,04,23,02,22,3.10
2006,04,23,02,23,3.10
2006,04,23,02,24,3.10
2006,04,23,02,25,3.10
2006,04,23,02,26,3.10
2006,04,23,02,27,3.10
2006,04,23,02,28,3.10
2006,04,23,02,29,3.10
2006,04,23,02,30,3.10
2006,04,23,02,31,3.10
2006,04,23,02,32,3.10
2006,04,23,02,33,3.10
2006,04,23,02,34,3.10
2006,04,23,02,35,3.10
2006,04,23,02,36,3.10
2006,04,23,02,37,3.10
2006,04,23,02,38,3.10
2006,04,23,02,39,3.10
2006,04,23,02,40,3.10
2006,04,23,02,41,3.10
2006,04,23,02,42,3.10
2006,04,23,02,43,3.10
2006,04,23,02,44,3.10
2006,04,23,02,45,3.10
2006,04,23,02,46,3.10
2006,04,23,02,47,3.10
2006,04,23,02,48,3.00
2006,04,23,02,49,2.90
2006,04,23,02,50,2.90
2006,04,23,02,51,2.90
2006,04,23,02,52,2.90
2006,04,23,02,53,2.90
2006,04,23,02,54,2.90
2006,04,23,02,55,2.90
2006,04,23,02,56,2.90
2006,04,23,02,57,2.90
2006,04,23,02,58,2.90
2006,04,23,02,59,2.90
2006,04,23,03,00,2.90
2006,04,23,03,01,2.90
2006,04,23,03,02,2.90
2006,04,23,03,03,2.90
2006,04,23,03,04,2.90
2006,04,23,03,05,2.90
2006,04,23,03,06,2.80
2006,04,23,03,07,2.80
2006,04,23,03,08,2.80
2006,04,23,03,09,2.80
2006,04,23,03,10,2.80
2006,04,23,03,11,2.70
2006,04,23,03,12,2.70
2006,04,23,03,13,2.70
2006,04,23,03,14,2.70
2006,04,23,03,15,2.70
2006,04,23,03,16,2.70
2006,04,23,03,17,2.60
2006,04,23,03,18,2.60
2006,04,23,03,19,2.60
2006,04,23,03,20,2.60
2006,04,23,03,21,2.60
2006,04,23,03,22,2.60
2006,04,23,03,23,2.60
2006,04,23,03,24,2.60
2006,04,23,03,25,2.60
2006,04,23,03,26,2.60
2006,04,23,03,27,2.60
2006,04,23,03,28,2.60
2006,04,23,03,29,2.60
2006,04,23,03,30,2.60
2006,04,23,03,31,2.60
2006,04,23,03,32,2.60
2006,04,23,03,33,2.60
2006,04,23,03,34,2.60
2006,04,23,03,35,2.60
2006,04,23,03,36,2.60
2006,04,23,03,37,2.60
2006,04,23,03,38,2.60
2006,04,23,03,39,2.60
2006,04,23,03,40,2.60
2006,04,23,03,41,2.70
2006,04,23,03,42,2.70
2006,04,23,03,43,2.70
2006,04,23,03,44,2.80
2006,04,23,03,45,2.90
2006,04,23,03,46,2.90
2006,04,23,03,47,3.00
2006,04,23,03,48,3.10
2006,04,23,03,49,3.10
2006,04,23,03,50,3.10
2006,04,23,03,51,3.20
2006,04,23,03,52,3.20
2006,04,23,03,53,3.30
2006,04,23,03,54,3.30
2006,04,23,03,55,3.30
2006,04,23,03,56,3.30
2006,04,23,03,57,3.40
2006,04,23,03,58,3.40
2006,04,23,03,59,3.50
2006,04,23,04,00,3.50
2006,04,23,04,01,3.60
2006,04,23,04,02,3.70
2006,04,23,04,03,3.70
2006,04,23,04,04,3.80
2006,04,23,04,05,3.80
2006,04,23,04,06,3.90
2006,04,23,04,07,4.00
2006,04,23,04,08,4.00
2006,04,23,04,09,4.00
2006,04,23,04,10,4.00
2006,04,23,04,11,4.10
2006,04,23,04,12,4.10
2006,04,23,04,13,4.10
2006,04,23,04,14,4.10
2006,04,23,04,15,4.10
2006,04,23,04,16,4.00
2006,04,23,04,17,4.00
2006,04,23,04,18,4.00
2006,04,23,04,19,4.00
2006,04,23,04,20,3.90
2006,04,23,04,21,3.90
2006,04,23,04,22,3.80
2006,04,23,04,23,3.80
2006,04,23,04,24,3.80
2006,04,23,04,25,3.80
2006,04,23,04,26,3.70
2006,04,23,04,27,3.70
2006,04,23,04,28,3.70
2006,04,23,04,29,3.60
2006,04,23,04,30,3.60
2006,04,23,04,31,3.60
2006,04,23,04,32,3.60
2006,04,23,04,33,3.60
2006,04,23,04,34,3.50
2006,04,23,04,35,3.50
2006,04,23,04,36,3.50
2006,04,23,04,37,3.50
2006,04,23,04,38,3.50
2006,04,23,04,39,3.50
2006,04,23,04,40,3.60
2006,04,23,04,41,3.60
2006,04,23,04,42,3.50
2006,04,23,04,43,3.50
2006,04,23,04,44,3.50
2006,04,23,04,45,3.50
2006,04,23,04,46,3.50
2006,04,23,04,47,3.50
2006,04,23,04,48,3.50
2006,04,23,04,49,3.50
2006,04,23,04,50,3.50
2006,04,23,04,51,3.50
2006,04,23,04,52,3.50
2006,04,23,04,53,3.50
2006,04,23,04,54,3.50
2006,04,23,04,55,3.60
2006,04,23,04,56,3.60
2006,04,23,04,57,3.60
2006,04,23,04,58,3.70
2006,04,23,04,59,3.70
2006,04,23,05,00,3.80
2006,04,23,05,01,3.90
2006,04,23,05,02,4.00
2006,04,23,05,03,4.10
2006,04,23,05,04,4.10
2006,04,23,05,05,4.10
2006,04,23,05,06,4.30
2006,04,23,05,07,4.40
2006,04,23,05,08,4.50
2006,04,23,05,09,4.50
2006,04,23,05,10,4.60
2006,04,23,05,11,4.60
2006,04,23,05,12,4.70
2006,04,23,05,13,4.70
2006,04,23,05,14,4.80
2006,04,23,05,15,4.80
2006,04,23,05,16,4.80
2006,04,23,05,17,4.80
2006,04,23,05,18,4.90
2006,04,23,05,19,4.90
2006,04,23,05,20,4.90
2006,04,23,05,21,4.90
2006,04,23,05,22,4.90
2006,04,23,05,23,4.90
2006,04,23,05,24,4.90
2006,04,23,05,25,4.90
2006,04,23,05,26,5.00
2006,04,23,05,27,5.10
2006,04,23,05,28,5.10
2006,04,23,05,29,5.10
2006,04,23,05,30,5.10
2006,04,23,05,31,5.10
2006,04,23,05,32,5.10
2006,04,23,05,33,5.10
2006,04,23,05,34,5.10
2006,04,23,05,35,5.10
2006,04,23,05,36,5.00
2006,04,23,05,37,5.10
2006,04,23,05,38,5.10
2006,04,23,05,39,5.00
2006,04,23,05,40,4.90
2006,04,23,05,41,4.90
2006,04,23,05,42,4.90
2006,04,23,05,43,4.90
2006,04,23,05,44,4.80
2006,04,23,05,45,4.80
2006,04,23,05,46,4.70
2006,04,23,05,47,4.60
2006,04,23,05,48,4.60
2006,04,23,05,49,4.60
2006,04,23,05,50,4.60
2006,04,23,05,51,4.60
2006,04,23,05,52,4.60
2006,04,23,05,53,4.60
2006,04,23,05,54,4.70
2006,04,23,05,55,4.70
2006,04,23,05,56,4.70
2006,04,23,05,57,4.80
2006,04,23,05,58,4.80
2006,04,23,05,59,4.80
2006,04,23,06,00,4.80
2006,04,23,06,01,4.80
2006,04,23,06,02,4.80
2006,04,23,06,03,4.80
2006,04,23,06,04,4.80
2006,04,23,06,05,4.80
2006,04,23,06,06,4.80
2006,04,23,06,07,4.80
2006,04,23,06,08,4.80
2006,04,23,06,09,4.90
2006,04,23,06,10,4.90
2006,04,23,06,11,5.00
2006,04,23,06,12,5.10
2006,04,23,06,13,5.10
2006,04,23,06,14,5.10
2006,04,23,06,15,5.10
2006,04,23,06,16,5.20
2006,04,23,06,17,5.20
2006,04,23,06,18,5.30
2006,04,23,06,19,5.30
2006,04,23,06,20,5.30
2006,04,23,06,21,5.30
2006,04,23,06,22,5.30
2006,04,23,06,23,5.30
2006,04,23,06,24,5.30
2006,04,23,06,25,5.30
2006,04,23,06,26,5.20
2006,04,23,06,27,5.20
2006,04,23,06,28,5.20
2006,04,23,06,29,5.20
2006,04,23,06,30,5.20
2006,04,23,06,31,5.10
2006,04,23,06,32,5.20
2006,04,23,06,33,5.10
2006,04,23,06,34,5.10
2006,04,23,06,35,5.20
2006,04,23,06,36,5.30
2006,04,23,06,37,5.40
2006,04,23,06,38,5.50
2006,04,23,06,39,5.50
2006,04,23,06,40,5.60
2006,04,23,06,41,5.60
2006,04,23,06,42,5.60
2006,04,23,06,43,5.60
2006,04,23,06,44,5.60
2006,04,23,06,45,5.60
2006,04,23,06,46,5.70
2006,04,23,06,47,5.70
2006,04,23,06,48,5.70
2006,04,23,06,49,5.70
2006,04,23,06,50,5.70
2006,04,23,06,51,5.70
2006,04,23,06,52,5.80
2006,04,23,06,53,5.90
2006,04,23,06,54,6.10
2006,04,23,06,55,6.20
2006,04,23,06,56,6.20
2006,04,23,06,57,6.30
2006,04,23,06,58,6.40
2006,04,23,06,59,6.40
2006,04,23,07,00,6.40
2006,04,23,07,01,6.40
2006,04,23,07,02,6.40
2006,04,23,07,03,6.50
2006,04,23,07,04,6.60
2006,04,23,07,05,6.60
2006,04,23,07,06,6.70
2006,04,23,07,07,6.80
2006,04,23,07,08,7.00
2006,04,23,07,09,7.00
2006,04,23,07,10,7.20
2006,04,23,07,11,7.30
2006,04,23,07,12,7.40
2006,04,23,07,13,7.40
2006,04,23,07,14,7.50
2006,04,23,07,15,7.50
2006,04,23,07,16,7.60
2006,04,23,07,17,7.60
2006,04,23,07,18,7.80
2006,04,23,07,19,7.90
2006,04,23,07,20,8.00
2006,04,23,07,21,8.10
2006,04,23,07,22,8.30
2006,04,23,07,23,8.40
2006,04,23,07,24,8.50
2006,04,23,07,25,8.60
2006,04,23,07,26,8.70
2006,04,23,07,27,8.80
2006,04,23,07,28,8.90
2006,04,23,07,29,9.00
2006,04,23,07,30,9.10
2006,04,23,07,31,9.20
2006,04,23,07,32,9.30
2006,04,23,07,33,9.30
2006,04,23,07,34,9.40
2006,04,23,07,35,9.50
2006,04,23,07,36,9.60
2006,04,23,07,37,9.60
2006,04,23,07,38,9.70
2006,04,23,07,39,9.70
2006,04,23,07,40,9.70
2006,04,23,07,41,9.80
2006,04,23,07,42,9.90
2006,04,23,07,43,9.90
2006,04,23,07,44,10.00
2006,04,23,07,45,10.10
2006,04,23,07,46,10.20
2006,04,23,07,47,10.20
2006,04,23,07,48,10.30
2006,04,23,07,49,10.40
2006,04,23,07,50,10.50
2006,04,23,07,51,10.60
2006,04,23,07,52,10.60
2006,04,23,07,53,10.70
2006,04,23,07,54,10.70
2006,04,23,07,55,10.80
2006,04,23,07,56,10.80
2006,04,23,07,57,10.90
2006,04,23,07,58,10.90
2006,04,23,07,59,10.90
2006,04,23,08,00,10.90
2006,04,23,08,01,11.00
2006,04,23,08,02,11.10
2006,04,23,08,03,11.10
2006,04,23,08,04,11.10
2006,04,23,08,05,11.10
2006,04,23,08,06,11.10
2006,04,23,08,07,11.20
2006,04,23,08,08,11.20
2006,04,23,08,09,11.20
2006,04,23,08,10,11.20
2006,04,23,08,11,11.20
2006,04,23,08,12,11.30
2006,04,23,08,13,11.30
2006,04,23,08,14,11.30
2006,04,23,08,15,11.40
2006,04,23,08,16,11.40
2006,04,23,08,17,11.40
2006,04,23,08,18,11.40
2006,04,23,08,19,11.60
2006,04,23,08,20,11.60
2006,04,23,08,21,11.60
2006,04,23,08,22,11.60
2006,04,23,08,23,11.60
2006,04,23,08,24,11.60
2006,04,23,08,25,11.70
2006,04,23,08,26,11.70
2006,04,23,08,27,11.80
2006,04,23,08,28,11.80
2006,04,23,08,29,11.80
2006,04,23,08,30,11.80
2006,04,23,08,31,11.90
2006,04,23,08,32,12.00
2006,04,23,08,33,12.00
2006,04,23,08,34,12.10
2006,04,23,08,35,12.10
2006,04,23,08,36,12.10
2006,04,23,08,37,12.10
2006,04,23,08,38,12.10
2006,04,23,08,39,12.10
2006,04,23,08,40,12.10
2006,04,23,08,41,12.10
2006,04,23,08,42,12.10
2006,04,23,08,43,12.20
2006,04,23,08,44,12.20
2006,04,23,08,45,12.20
2006,04,23,08,46,12.10
2006,04,23,08,47,12.10
2006,04,23,08,48,12.20
2006,04,23,08,49,12.20
2006,04,23,08,50,12.20
2006,04,23,08,51,12.30
2006,04,23,08,52,12.30
2006,04,23,08,53,12.30
2006,04,23,08,54,12.30
2006,04,23,08,55,12.40
2006,04,23,08,56,12.40
2006,04,23,08,57,12.50
2006,04,23,08,58,12.50
2006,04,23,08,59,12.60
2006,04,23,09,00,12.60
2006,04,23,09,01,12.60
2006,04,23,09,02,12.70
2006,04,23,09,03,12.80
2006,04,23,09,04,12.80
2006,04,23,09,05,12.80
2006,04,23,09,06,12.90
2006,04,23,09,07,13.00
2006,04,23,09,08,13.00
2006,04,23,09,09,13.10
2006,04,23,09,10,13.10
2006,04,23,09,11,13.10
2006,04,23,09,12,13.10
2006,04,23,09,13,13.10
2006,04,23,09,14,13.10
2006,04,23,09,15,13.10
2006,04,23,09,16,13.10
2006,04,23,09,17,13.20
2006,04,23,09,18,13.30
2006,04,23,09,19,13.30
2006,04,23,09,20,13.30
2006,04,23,09,21,13.30
2006,04,23,09,22,13.30
2006,04,23,09,23,13.40
2006,04,23,09,24,13.50
2006,04,23,09,25,13.60
2006,04,23,09,26,13.60
2006,04,23,09,27,13.70
2006,04,23,09,28,13.70
2006,04,23,09,29,13.70
2006,04,23,09,30,13.60
2006,04,23,09,31,13.60
2006,04,23,09,32,13.70
2006,04,23,09,33,13.70
2006,04,23,09,34,13.70
2006,04,23,09,35,13.70
2006,04,23,09,36,13.60
2006,04,23,09,37,13.60
2006,04,23,09,38,13.70
2006,04,23,09,39,13.70
2006,04,23,09,40,13.70
2006,04,23,09,41,13.70
2006,04,23,09,42,13.70
2006,04,23,09,43,13.70
2006,04,23,09,44,13.70
2006,04,23,09,45,13.70
2006,04,23,09,46,13.70
2006,04,23,09,47,13.70
2006,04,23,09,48,13.60
2006,04,23,09,49,13.50
2006,04,23,09,50,13.40
2006,04,23,09,51,13.50
2006,04,23,09,52,13.60
2006,04,23,09,53,13.70
2006,04,23,09,54,13.80
2006,04,23,09,55,13.90
2006,04,23,09,56,13.90
2006,04,23,09,57,14.00
2006,04,23,09,58,14.00
2006,04,23,09,59,13.90
2006,04,23,10,00,13.90
2006,04,23,10,01,13.90
2006,04,23,10,02,13.90
2006,04,23,10,03,13.90
2006,04,23,10,04,14.00
2006,04,23,10,05,14.10
2006,04,23,10,06,14.20
2006,04,23,10,07,14.30
2006,04,23,10,08,14.40
2006,04,23,10,09,14.40
2006,04,23,10,10,14.40
2006,04,23,10,11,14.40
2006,04,23,10,12,14.30
2006,04,23,10,13,14.20
2006,04,23,10,14,14.20
2006,04,23,10,15,14.20
2006,04,23,10,16,14.20
2006,04,23,10,17,14.20
2006,04,23,10,18,14.30
2006,04,23,10,19,14.40
2006,04,23,10,20,14.40
2006,04,23,10,21,14.30
2006,04,23,10,22,14.20
2006,04,23,10,23,14.20
2006,04,23,10,24,14.20
2006,04,23,10,25,14.20
2006,04,23,10,26,14.20
2006,04,23,10,27,14.20
2006,04,23,10,28,14.30
2006,04,23,10,29,14.40
2006,04,23,10,30,14.50
2006,04,23,10,31,14.60
2006,04,23,10,32,14.60
2006,04,23,10,33,14.50
2006,04,23,10,34,14.50
2006,04,23,10,35,14.50
2006,04,23,10,36,14.50
2006,04,23,10,37,14.40
2006,04,23,10,38,14.40
2006,04,23,10,39,14.50
2006,04,23,10,40,14.50
2006,04,23,10,41,14.50
2006,04,23,10,42,14.60
2006,04,23,10,43,14.60
2006,04,23,10,44,14.50
2006,04,23,10,45,14.40
2006,04,23,10,46,14.30
2006,04,23,10,47,14.20
2006,04,23,10,48,14.20
2006,04,23,10,49,14.20
2006,04,23,10,50,14.20
2006,04,23,10,51,14.30
2006,04,23,10,52,14.40
2006,04,23,10,53,14.40
2006,04,23,10,54,14.20
2006,04,23,10,55,14.20
2006,04,23,10,56,14.20
2006,04,23,10,57,14.30
2006,04,23,10,58,14.40
2006,04,23,10,59,14.50
2006,04,23,11,00,14.50
2006,04,23,11,01,14.50
2006,04,23,11,02,14.40
2006,04,23,11,03,14.50
2006,04,23,11,04,14.60
2006,04,23,11,05,14.60
2006,04,23,11,06,14.70
2006,04,23,11,07,14.80
2006,04,23,11,08,14.80
2006,04,23,11,09,14.90
2006,04,23,11,10,15.00
2006,04,23,11,11,15.10
2006,04,23,11,12,14.90
2006,04,23,11,13,14.80
2006,04,23,11,14,14.70
2006,04,23,11,15,14.60
2006,04,23,11,16,14.60
2006,04,23,11,17,14.70
2006,04,23,11,18,14.80
2006,04,23,11,19,14.90
2006,04,23,11,20,14.90
2006,04,23,11,21,15.00
2006,04,23,11,22,15.10
2006,04,23,11,23,15.20
2006,04,23,11,24,15.30
2006,04,23,11,25,15.30
2006,04,23,11,26,15.20
2006,04,23,11,27,15.20
2006,04,23,11,28,15.10
2006,04,23,11,29,14.80
2006,04,23,11,30,14.60
2006,04,23,11,31,14.50
2006,04,23,11,32,14.50
2006,04,23,11,33,14.60
2006,04,23,11,34,14.70
2006,04,23,11,35,14.90
2006,04,23,11,36,15.00
2006,04,23,11,37,15.10
2006,04,23,11,38,15.20
2006,04,23,11,39,15.30
2006,04,23,11,40,15.30
2006,04,23,11,41,15.40
2006,04,23,11,42,15.50
2006,04,23,11,43,15.50
2006,04,23,11,44,15.50
2006,04,23,11,45,15.50
2006,04,23,11,46,15.40
2006,04,23,11,47,15.20
2006,04,23,11,48,15.20
2006,04,23,11,49,15.20
2006,04,23,11,50,15.30
2006,04,23,11,51,15.20
2006,04,23,11,52,15.20
2006,04,23,11,53,15.20
2006,04,23,11,54,15.10
2006,04,23,11,55,15.10
2006,04,23,11,56,15.00
2006,04,23,11,57,14.90
2006,04,23,11,58,14.80
2006,04,23,11,59,14.80
2006,04,23,12,00,14.80
2006,04,23,12,01,14.80
2006,04,23,12,02,14.90
2006,04,23,12,03,14.90
2006,04,23,12,04,15.10
2006,04,23,12,05,15.20
2006,04,23,12,06,15.30
2006,04,23,12,07,15.40
2006,04,23,12,08,15.50
2006,04,23,12,09,15.50
2006,04,23,12,10,15.40
2006,04,23,12,11,15.40
2006,04,23,12,12,15.50
2006,04,23,12,13,15.60
2006,04,23,12,14,15.80
2006,04,23,12,15,15.80
2006,04,23,12,16,15.90
2006,04,23,12,17,15.90
2006,04,23,12,18,15.90
2006,04,23,12,19,15.70
2006,04,23,12,20,15.70
2006,04,23,12,21,15.70
2006,04,23,12,22,15.80
2006,04,23,12,23,15.80
2006,04,23,12,24,15.90
2006,04,23,12,25,15.90
2006,04,23,12,26,15.90
2006,04,23,12,27,15.80
2006,04,23,12,28,15.80
2006,04,23,12,29,15.80
2006,04,23,12,30,15.80
2006,04,23,12,31,15.70
2006,04,23,12,32,15.60
2006,04,23,12,33,15.60
2006,04,23,12,34,15.70
2006,04,23,12,35,15.80
2006,04,23,12,36,15.90
2006,04,23,12,37,16.00
2006,04,23,12,38,16.10
2006,04,23,12,39,16.10
2006,04,23,12,40,16.10
2006,04,23,12,41,16.10
2006,04,23,12,42,16.10
2006,04,23,12,43,16.20
2006,04,23,12,44,16.20
2006,04,23,12,45,16.30
2006,04,23,12,46,16.30
2006,04,23,12,47,16.30
2006,04,23,12,48,16.40
2006,04,23,12,49,16.50
2006,04,23,12,50,16.60
2006,04,23,12,51,16.70
2006,04,23,12,52,16.70
2006,04,23,12,53,16.70
2006,04,23,12,54,16.70
2006,04,23,12,55,16.90
2006,04,23,12,56,16.90
2006,04,23,12,57,17.00
2006,04,23,12,58,17.00
2006,04,23,12,59,17.00
2006,04,23,13,00,17.00
2006,04,23,13,01,17.00
2006,04,23,13,02,16.90
2006,04,23,13,03,16.70
2006,04,23,13,04,16.60
2006,04,23,13,05,16.60
2006,04,23,13,06,16.40
2006,04,23,13,07,16.40
2006,04,23,13,08,16.50
2006,04,23,13,09,16.70
2006,04,23,13,10,16.80
2006,04,23,13,11,16.90
2006,04,23,13,12,16.90
2006,04,23,13,13,16.90
2006,04,23,13,14,16.90
2006,04,23,13,15,17.00
2006,04,23,13,16,17.00
2006,04,23,13,17,17.10
2006,04,23,13,18,17.10
2006,04,23,13,19,17.10
2006,04,23,13,20,17.10
2006,04,23,13,21,17.10
2006,04,23,13,22,17.10
2006,04,23,13,23,17.00
2006,04,23,13,24,16.80
2006,04,23,13,25,16.70
2006,04,23,13,26,16.70
2006,04,23,13,27,16.60
2006,04,23,13,28,16.60
2006,04,23,13,29,16.60
2006,04,23,13,30,16.60
2006,04,23,13,31,16.70
2006,04,23,13,32,16.70
2006,04,23,13,33,16.80
2006,04,23,13,34,16.90
2006,04,23,13,35,17.10
2006,04,23,13,36,17.10
2006,04,23,13,37,17.00
2006,04,23,13,38,17.00
2006,04,23,13,39,16.90
2006,04,23,13,40,17.00
2006,04,23,13,41,17.00
2006,04,23,13,42,17.10
2006,04,23,13,43,17.20
2006,04,23,13,44,17.20
2006,04,23,13,45,17.30
2006,04,23,13,46,17.40
2006,04,23,13,47,17.50
2006,04,23,13,48,17.60
2006,04,23,13,49,17.60
2006,04,23,13,50,17.60
2006,04,23,13,51,17.50
2006,04,23,13,52,17.50
2006,04,23,13,53,17.50
2006,04,23,13,54,17.70
2006,04,23,13,55,17.70
2006,04,23,13,56,17.60
2006,04,23,13,57,17.60
2006,04,23,13,58,17.70
2006,04,23,13,59,17.70
2006,04,23,14,00,17.80
2006,04,23,14,01,17.90
2006,04,23,14,02,17.80
2006,04,23,14,03,17.60
2006,04,23,14,04,17.50
2006,04,23,14,05,17.50
2006,04,23,14,06,17.50
2006,04,23,14,07,17.30
2006,04,23,14,08,17.30
2006,04,23,14,09,17.40
2006,04,23,14,10,17.50
2006,04,23,14,11,17.50
2006,04,23,14,12,17.40
2006,04,23,14,13,17.50
2006,04,23,14,14,17.60
2006,04,23,14,15,17.80
2006,04,23,14,16,18.00
2006,04,23,14,17,18.20
2006,04,23,14,18,18.20
2006,04,23,14,19,18.20
2006,04,23,14,20,18.20
2006,04,23,14,21,18.20
2006,04,23,14,22,18.20
2006,04,23,14,23,18.20
2006,04,23,14,24,18.20
2006,04,23,14,25,18.30
2006,04,23,14,26,18.40
2006,04,23,14,27,18.40
2006,04,23,14,28,18.50
2006,04,23,14,29,18.50
2006,04,23,14,30,18.50
2006,04,23,14,31,18.60
2006,04,23,14,32,18.60
2006,04,23,14,33,18.60
2006,04,23,14,34,18.60
2006,04,23,14,35,18.50
2006,04,23,14,36,18.40
2006,04,23,14,37,18.30
2006,04,23,14,38,18.30
2006,04,23,14,39,18.20
2006,04,23,14,40,18.10
2006,04,23,14,41,18.10
2006,04,23,14,42,18.10
2006,04,23,14,43,18.20
2006,04,23,14,44,18.50
2006,04,23,14,45,18.50
2006,04,23,14,46,18.70
2006,04,23,14,47,18.80
2006,04,23,14,48,18.90
2006,04,23,14,49,18.90
2006,04,23,14,50,19.00
2006,04,23,14,51,19.10
2006,04,23,14,52,19.10
2006,04,23,14,53,19.20
2006,04,23,14,54,19.10
2006,04,23,14,55,19.10
2006,04,23,14,56,19.10
2006,04,23,14,57,19.10
2006,04,23,14,58,19.10
2006,04,23,14,59,19.10
2006,04,23,15,00,18.90
2006,04,23,15,01,18.80
2006,04,23,15,02,18.80
2006,04,23,15,03,18.90
2006,04,23,15,04,18.90
2006,04,23,15,05,19.00
2006,04,23,15,06,19.10
2006,04,23,15,07,19.10
2006,04,23,15,08,19.00
2006,04,23,15,09,18.80
2006,04,23,15,10,18.70
2006,04,23,15,11,18.50
2006,04,23,15,12,18.50
2006,04,23,15,13,18.60
2006,04,23,15,14,18.60
2006,04,23,15,15,18.70
2006,04,23,15,16,18.70
2006,04,23,15,17,18.70
2006,04,23,15,18,18.70
2006,04,23,15,19,18.70
2006,04,23,15,20,18.80
2006,04,23,15,21,18.80
2006,04,23,15,22,18.90
2006,04,23,15,23,19.00
2006,04,23,15,24,19.10
2006,04,23,15,25,19.20
2006,04,23,15,26,19.30
2006,04,23,15,27,19.50
2006,04,23,15,28,19.50
2006,04,23,15,29,19.30
2006,04,23,15,30,19.20
2006,04,23,15,31,19.10
2006,04,23,15,32,19.10
2006,04,23,15,33,19.00
2006,04,23,15,34,18.90
2006,04,23,15,35,18.90
2006,04,23,15,36,18.90
2006,04,23,15,37,18.90
2006,04,23,15,38,18.90
2006,04,23,15,39,18.90
2006,04,23,15,40,18.90
2006,04,23,15,41,18.90
2006,04,23,15,42,18.90
2006,04,23,15,43,18.90
2006,04,23,15,44,18.90
2006,04,23,15,45,19.00
2006,04,23,15,46,19.10
2006,04,23,15,47,19.10
2006,04,23,15,48,19.30
2006,04,23,15,49,19.30
2006,04,23,15,50,19.30
2006,04,23,15,51,19.20
2006,04,23,15,52,19.30
2006,04,23,15,53,19.30
2006,04,23,15,54,19.30
2006,04,23,15,55,19.30
2006,04,23,15,56,19.40
2006,04,23,15,57,19.50
2006,04,23,15,58,19.50
2006,04,23,15,59,19.50
2006,04,23,16,00,19.40
2006,04,23,16,01,19.40
2006,04,23,16,02,19.40
2006,04,23,16,03,19.50
2006,04,23,16,04,19.60
2006,04,23,16,05,19.70
2006,04,23,16,06,19.80
2006,04,23,16,07,19.90
2006,04,23,16,08,19.90
2006,04,23,16,09,20.00
2006,04,23,16,10,20.10
2006,04,23,16,11,20.10
2006,04,23,16,12,20.10
2006,04,23,16,13,20.10
2006,04,23,16,14,20.10
2006,04,23,16,15,20.10
2006,04,23,16,16,20.10
2006,04,23,16,17,20.10
2006,04,23,16,18,20.10
2006,04,23,16,19,20.10
2006,04,23,16,20,20.20
2006,04,23,16,21,20.20
2006,04,23,16,22,20.20
2006,04,23,16,23,20.20
2006,04,23,16,24,20.20
2006,04,23,16,25,20.40
2006,04,23,16,26,20.50
2006,04,23,16,27,20.60
2006,04,23,16,28,20.60
2006,04,23,16,29,20.40
2006,04,23,16,30,20.20
2006,04,23,16,31,20.20
2006,04,23,16,32,20.10
2006,04,23,16,33,20.10
2006,04,23,16,34,20.00
2006,04,23,16,35,20.00
2006,04,23,16,36,20.10
2006,04,23,16,37,20.10
2006,04,23,16,38,20.20
2006,04,23,16,39,20.10
2006,04,23,16,40,20.00
2006,04,23,16,41,19.90
2006,04,23,16,42,19.90
2006,04,23,16,43,19.90
2006,04,23,16,44,19.90
2006,04,23,16,45,19.90
2006,04,23,16,46,19.90
2006,04,23,16,47,19.90
2006,04,23,16,48,19.90
2006,04,23,16,49,19.90
2006,04,23,16,50,19.90
2006,04,23,16,51,20.00
2006,04,23,16,52,20.10
2006,04,23,16,53,20.10
2006,04,23,16,54,20.10
2006,04,23,16,55,20.10
2006,04,23,16,56,20.20
2006,04,23,16,57,20.20
2006,04,23,16,58,20.20
2006,04,23,16,59,20.20
2006,04,23,17,00,20.20
2006,04,23,17,01,20.10
2006,04,23,17,02,20.00
2006,04,23,17,03,19.90
2006,04,23,17,04,19.90
2006,04,23,17,05,19.90
2006,04,23,17,06,19.90
2006,04,23,17,07,20.10
2006,04,23,17,08,20.20
2006,04,23,17,09,20.10
2006,04,23,17,10,20.10
2006,04,23,17,11,19.90
2006,04,23,17,12,19.90
2006,04,23,17,13,19.90
2006,04,23,17,14,20.00
2006,04,23,17,15,20.10
2006,04,23,17,16,20.20
2006,04,23,17,17,20.20
2006,04,23,17,18,20.30
2006,04,23,17,19,20.40
2006,04,23,17,20,20.40
2006,04,23,17,21,20.50
2006,04,23,17,22,20.60
2006,04,23,17,23,20.60
2006,04,23,17,24,20.50
2006,04,23,17,25,20.40
2006,04,23,17,26,20.40
2006,04,23,17,27,20.30
2006,04,23,17,28,20.40
2006,04,23,17,29,20.40
2006,04,23,17,30,20.40
2006,04,23,17,31,20.30
2006,04,23,17,32,20.20
2006,04,23,17,33,20.20
2006,04,23,17,34,20.20
2006,04,23,17,35,20.20
2006,04,23,17,36,20.20
2006,04,23,17,37,20.20
2006,04,23,17,38,20.10
2006,04,23,17,39,20.20